Weather History for Kodiak, AK

Change the Weather History Date:

Sunday, May 10, 2009

  Actual Average Record
Temperature  
Mean Temperature 45 °F 43 °F  
Max Temperature 58 °F 49 °F 66 °F (2014)
Min Temperature 31 °F 38 °F 27 °F (1964)
Degree Days  
Heating Degree Days 20 22  
Month to date heating degree days 221 227  
Since 1 July heating degree days 8550 7919  
Cooling Degree Days 0    
Month to date cooling degree days 0  
Year to date cooling degree days 0  
Moisture  
Dew Point 30 °F    
Average Humidity 0    
Maximum Humidity 0    
Minimum Humidity 0    
Precipitation  
Precipitation 0.00 in 0.17 in 1.79 in (1983)
Month to date precipitation 0.03 1.72  
Year to date precipitation 21.95 27.49  
Snow  
Snow 0.00 in 0.00 in 0.80 in (1971)
Month to date snowfall T 0.2  
Snow Depth 0.00 in    
Sea Level Pressure  
Sea Level Pressure 30.30 in    
Wind  
Wind Speed 7 mph (NW)    
Max Wind Speed 15 mph    
Max Gust Speed 23 mph    
Visibility 10 miles    
Events      
T = Trace of Precipitation, MM = Missing Value Source: NWS Daily Summary

Daily Weather History Graph

Daily Weather History Graph

Search for Another Location

Airport:

Trip Planner

Search our weather history database for the weather conditions in past years. The results will help you decide how hot, cold, wet, or windy it might be!

Date:

Astronomy

May. 10, 2009 Rise Set
Actual Time 5:56 AM AKDT 10:17 PM AKDT
Civil Twilight 5:04 AM AKDT 11:10 PM AKDT
Nautical Twilight 3:41 AM AKDT 12:35 AM AKDT
Astronomical Twilight Sun does not rise Sun does not rise
Moon 12:10 AM AKDT (5/10) 5:52 AM AKDT (5/10)
Length of Visible Light 18h 05m
Length of Day
16h 20m
Full, 97% of the Moon is Illuminated
May 10
Full
May 16
Last Quarter
May 24
New
May 30
First Quarter
Jun 7
Full

Hourly Weather History & Observations

Time (AKDT) Temp. Windchill Dew Point Humidity Pressure Visibility Wind Dir Wind Speed Gust Speed Precip Events Conditions
12:53 AM 41.0 °F - 30.0 °F 65% 30.35 in 10.0 mi Calm Calm - N/A   Mostly Cloudy
1:53 AM 35.1 °F 31.0 °F 27.0 °F 72% 30.35 in 10.0 mi West 4.6 mph - N/A   Mostly Cloudy
2:53 AM 34.0 °F 29.8 °F 27.0 °F 75% 30.35 in 10.0 mi West 4.6 mph - N/A   Mostly Cloudy
3:53 AM 33.1 °F 28.7 °F 27.0 °F 78% 30.35 in 10.0 mi WSW 4.6 mph - N/A   Partly Cloudy
4:53 AM 32.0 °F 28.7 °F 27.0 °F 82% 30.34 in 10.0 mi West 3.5 mph - N/A   Scattered Clouds
5:53 AM 32.0 °F 26.4 °F 27.0 °F 82% 30.34 in 10.0 mi West 5.8 mph - N/A   Scattered Clouds
6:53 AM 34.0 °F 31.0 °F 30.0 °F 85% 30.33 in 10.0 mi WSW 3.5 mph - N/A   Scattered Clouds
7:50 AM 39.2 °F - 35.6 °F 87% 30.32 in 10.0 mi Calm Calm - N/A   Scattered Clouds
7:53 AM 39.9 °F - 36.0 °F 86% 30.32 in 10.0 mi Calm Calm - N/A   Scattered Clouds
8:53 AM 43.0 °F 41.3 °F 34.0 °F 71% 30.32 in 10.0 mi NE 3.5 mph - N/A   Scattered Clouds
9:53 AM 44.1 °F 42.5 °F 33.1 °F 65% 30.32 in 10.0 mi ENE 3.5 mph - N/A   Mostly Cloudy
10:53 AM 46.0 °F 43.1 °F 37.9 °F 73% 30.32 in 10.0 mi ENE 5.8 mph - N/A   Mostly Cloudy
11:53 AM 46.9 °F - 39.0 °F 74% 30.32 in 10.0 mi East 4.6 mph - N/A   Overcast
12:53 PM 48.0 °F - 37.0 °F 66% 30.31 in 10.0 mi ENE 5.8 mph - N/A   Overcast
1:53 PM 55.9 °F - 26.1 °F 32% 30.30 in 10.0 mi West 13.8 mph 19.6 mph N/A   Overcast
2:53 PM 55.9 °F - 25.0 °F 30% 30.29 in 10.0 mi NW 8.1 mph 17.3 mph N/A   Overcast
3:53 PM 57.0 °F - 23.0 °F 27% 30.28 in 10.0 mi WNW 11.5 mph 19.6 mph N/A   Overcast
4:53 PM 57.9 °F - 24.1 °F 27% 30.26 in 10.0 mi NW 9.2 mph 20.7 mph N/A   Mostly Cloudy
5:53 PM 55.9 °F - 28.9 °F 36% 30.25 in 10.0 mi NW 10.4 mph - N/A   Mostly Cloudy
6:53 PM 55.0 °F - 28.0 °F 35% 30.25 in 10.0 mi NW 10.4 mph - N/A   Mostly Cloudy
7:53 PM 54.0 °F - 27.0 °F 35% 30.24 in 10.0 mi NNW 11.5 mph - N/A   Mostly Cloudy
8:53 PM 51.1 °F - 27.0 °F 39% 30.24 in 10.0 mi North 9.2 mph - N/A   Mostly Cloudy
9:53 PM 48.9 °F - 27.0 °F 43% 30.23 in 10.0 mi WNW 6.9 mph - N/A   Mostly Cloudy
10:53 PM 48.0 °F - 27.0 °F 44% 30.23 in 10.0 mi NW 8.1 mph - N/A   Mostly Cloudy
11:53 PM 48.0 °F - 27.0 °F 44% 30.21 in 10.0 mi WNW 8.1 mph - N/A   Mostly Cloudy